TimeMST,TemperatureF,Dew PointF,Humidity,Sea Level PressureIn,VisibilityMPH,Wind Direction,Wind SpeedMPH,Gust SpeedMPH,PrecipitationIn,Events,Conditions,WindDirDegrees,DateUTC
1:50 AM,73,69,82,29.88,6,NNW,2.2,,,,,340,2012-11-07 08:50:00
4:50 AM,70,69,94,29.89,6,NNE,2.2,,,,,20,2012-11-07 11:50:00
6:00 AM,73.4,66.2,78,29.92,10.0,Calm,Calm,-,N/A,,Scattered Clouds,0,2012-11-07 13:00:00
6:40 AM,73.4,66.2,78,29.93,10.0,Calm,Calm,-,N/A,,Scattered Clouds,0,2012-11-07 13:40:00
7:40 AM,73.4,66.2,78,30.00,10.0,Calm,Calm,-,N/A,,Scattered Clouds,0,2012-11-07 14:40:00
7:50 AM,71,68,88,29.93,10,ESE,2.2,,,,Haze,120,2012-11-07 14:50:00
8:40 AM,78.8,68.0,69,29.96,10.0,Calm,Calm,-,N/A,,Mostly Cloudy,0,2012-11-07 15:40:00
9:51 AM,82.4,69.8,66,29.99,10.0,East,5.8,-,N/A,,Mostly Cloudy,90,2012-11-07 16:51:00
10:35 AM,88,71,47,30.01,10,SE,2.2,,,,Haze,140,2012-11-07 17:35:00
10:41 AM,87.8,69.8,55,29.93,10.0,Calm,Calm,-,N/A,,Mostly Cloudy,0,2012-11-07 17:41:00
11:43 AM,91.4,68.0,46,29.92,10.0,Calm,Calm,-,N/A,,Mostly Cloudy,0,2012-11-07 18:43:00
12:41 PM,93.2,68.0,44,29.88,10.0,Calm,Calm,-,N/A,,Mostly Cloudy,0,2012-11-07 19:41:00
1:40 PM,92,69,38,29.92,10,SSW,2.2,,,,Haze,200,2012-11-07 20:40:00
1:48 PM,95.0,69.8,44,29.88,10.0,West,6.9,-,N/A,,Mostly Cloudy,260,2012-11-07 20:48:00
2:45 PM,95.0,69.8,44,29.84,10.0,SW,6.9,-,N/A,,Mostly Cloudy,230,2012-11-07 21:45:00
3:45 PM,91.4,68.0,46,29.85,10.0,SW,11.5,-,N/A,,Mostly Cloudy,230,2012-11-07 22:45:00
4:40 PM,86,73,57,29.91,10,SSW,2.2,,,,Haze,200,2012-11-07 23:40:00
4:41 PM,87.8,69.8,55,29.84,10.0,WSW,5.8,-,N/A,,Overcast,240,2012-11-07 23:41:00
5:40 PM,84.2,69.8,62,29.86,10.0,WSW,6.9,-,N/A,,Scattered Clouds,240,2012-11-08 00:40:00
6:40 PM,80.6,69.8,70,29.88,10.0,WSW,6.9,-,N/A,,Scattered Clouds,240,2012-11-08 01:40:00
7:40 PM,79,73,77,29.96,6,Calm,Calm,,,,,,2012-11-08 02:40:00
7:41 PM,80.6,69.8,70,29.88,10.0,Calm,Calm,-,N/A,,Scattered Clouds,0,2012-11-08 02:41:00
8:40 PM,80.6,69.8,70,29.91,10.0,Calm,Calm,-,N/A,,Scattered Clouds,0,2012-11-08 03:40:00
9:40 PM,77.0,71.6,83,29.93,10.0,Calm,Calm,-,N/A,,Scattered Clouds,0,2012-11-08 04:40:00
10:40 PM,73,68,81,29.99,6,Calm,Calm,,,,,,2012-11-08 05:40:00
10:40 PM,77.0,71.6,83,29.90,10.0,Calm,Calm,-,N/A,,Scattered Clouds,0,2012-11-08 05:40:00